TIME,DELAY(SENSOR),PRES,T(CTD),SAL,OXYGEN,RAWTEMP,T(OPTODE),TCPHASE,FLUOR,BETA(BETA700),BETA(BETA412),BETA(BETA440),CDOM,C(CSC),ED(ED411.90),ED(ED443.80),ED(ED489.40),ED(ED554.70),LU(LU412.20),LU(LU443.80),LU(LU489.40),LU(LU555.00),COMP,TILTX,TILTX(TILTY),CHECK
1349277322,5806,492.2200012207031000,17.2535991668701170,36.4137001037597660,225.3043975830078000,180.2089996337890600,17.2450294494628900,31.5524997711181640,50,100,91,65,53,13179,2146957750,2147517257,2147267200,2147467693,2147087661,2146956178,2147660544,2147122349,443,-1,8,2355
1349277439,5807,481.1499938964844000,17.3514995574951170,36.4346008300781250,227.5007019042968800,176.9031982421875000,17.3447399139404300,31.3959693908691400,50,100,90,65,53,13180,2146958281,2147514605,2147267026,2147465389,2147088457,2146952182,2147657307,2147120182,2773,-1,8,50796
1349277554,5804,470.4800109863281000,17.4706993103027340,36.4571990966796900,229.4295959472656200,173.0357971191406200,17.4614105224609380,31.2463798522949220,50,101,90,65,53,13178,2146955894,2147513609,2147265554,2147465508,2147087862,2146953234,2147656192,2147118107,2780,-2,8,19833
1349277683,5803,458.5299987792969000,17.5237998962402340,36.4692001342773440,231.1094055175781200,171.1105041503906200,17.5195007324218750,31.1373004913330080,50,101,91,65,53,13178,2146956178,2147514724,2147266541,2147463369,2147085668,2146955190,2147653019,2147116425,2048,-1,8,6214
1349277810,5805,446.9500122070312500,17.5937995910644530,36.4817008972168000,231.9880981445312500,168.8791961669922000,17.5868301391601560,31.0636405944824220,50,102,91,64,53,13176,2146954432,2147511442,2147265874,2147463579,2147085805,2146953435,2147658944,2147122322,1628,-1,8,5468
1349277925,5804,436.3699951171875000,17.6623992919921880,36.4953994750976560,233.2158050537109400,166.4940948486328000,17.6588096618652340,30.9714794158935550,51,100,91,66,52,13180,2146956516,2147516278,2147268589,2147464283,2147086720,2146955364,2147655040,2147120018,1436,-1,8,19178
1349278042,5806,425.6600036621094000,17.7404003143310550,36.5094985961914060,234.1239929199218800,163.9167022705078000,17.7366008758544920,30.8927192687988280,50,100,91,66,53,13177,2146956635,2147518491,2147268324,2147463661,2147084416,2146952018,2147654784,2147113737,1328,-2,8,51516
1349278169,5808,414.1600036621094000,17.7957000732421880,36.5200996398925800,235.2669067382812500,162.0885009765625000,17.7917804718017580,30.8127498626709000,50,101,90,63,52,13178,2146957019,2147511881,2147265956,2147464603,2147086582,2146959104,2147654208,2147117586,383,-1,8,60213
1349278284,5805,403.6799926757812500,17.8540992736816400,36.5306015014648440,235.9667968750000000,160.1882934570312500,17.8491497039794920,30.7535305023193360,50,101,91,66,53,13176,2146956132,2147513792,2147268041,2147460553,2147085229,2146957147,2147654710,2147116278,158,-1,8,62763
1349278413,5805,391.9800109863281000,17.9104995727539060,36.5395011901855500,236.2958068847656200,158.3123931884765600,17.9057903289794920,30.7126808166503900,50,100,91,65,52,13177,2146954678,2147515629,2147265316,2147461147,2147085056,2146956169,2147652352,2147115163,3176,-1,9,21221
1349278528,5803,381.5400085449219000,17.9522991180419920,36.5463981628418000,236.6237945556640600,156.9015960693359400,17.9483890533447270,30.6778297424316400,50,101,90,64,52,13176,2146954660,2147515638,2147266843,2147458258,2147087689,2146957531,2147660361,2147122806,2925,-1,8,5614
1349278657,5806,369.7999877929687500,18.0006008148193360,36.5547981262207000,236.8932952880859400,155.2621002197265600,17.9979000091552730,30.6431007385253900,50,99,91,65,53,13175,2146955026,2147513764,2147265883,2147461814,2147084809,2146959853,2147655917,2147124827,3265,-1,8,19672
1349278772,5803,359.4500122070312500,18.0352993011474600,36.5582008361816400,236.4806060791015600,154.1269073486328000,18.0321807861328120,30.6478996276855470,51,101,91,64,53,13175,2146956288,2147513938,2147266688,2147461897,2147085165,2146953508,2147657929,2147126034,2464,-1,9,25714
1349278899,5805,348.0700073242187500,18.0835990905761720,36.5634994506835940,235.8439941406250000,152.5316925048828000,18.0803604125976560,30.6570301055908200,50,101,91,64,53,13174,2146953572,2147517897,2147266148,2147457718,2147083830,2146956534,2147658112,2147123739,2415,-2,9,23471
1349279016,5805,337.7099914550781000,18.1336994171142580,36.5693016052246100,235.3182067871093800,150.8923034667968800,18.1298809051513670,30.6603698730468750,50,102,91,65,53,13175,2146958125,2147516662,2147265179,2147457837,2147085568,2146955913,2147660480,2147123858,2026,-1,9,51697
1349279143,5806,326.6799926757812500,18.1896991729736330,36.5758018493652340,235.0411987304687500,149.0323944091797000,18.1860694885253900,30.6487293243408200,50,103,90,65,52,13173,2146957714,2147514240,2147266249,2147458066,2147084946,2146961179,2147661385,2147117494,1644,-1,8,1614
1349279272,5805,315.7200012207031000,18.2352008819580080,36.5811004638671900,234.4915008544922000,147.4586029052734400,18.2336196899414060,30.6544094085693360,50,101,91,65,51,13172,2146957851,2147514560,2147266733,2147461961,2147089298,2146960064,2147659355,2147122614,1621,-1,9,13578
1349279411,5805,304.2399902343750000,18.2971000671386720,36.5861015319824200,233.6670989990234400,145.4571075439453000,18.2940998077392580,30.6675300598144530,51,101,91,64,52,13171,2146958994,2147513920,2147267209,2147458459,2147086208,2146959204,2147662866,2147127460,1171,-1,8,17051
1349279550,5808,293.4299926757812500,18.3691997528076170,36.5931015014648440,232.3831939697265600,143.1739959716797000,18.3631000518798830,30.6993293762207030,51,101,90,65,53,13170,2146955291,2147517924,2147265755,2147461092,2147087204,2146962898,2147674057,2147126235,552,-1,9,31116
1349279691,5806,282.8299865722656000,18.4349994659423830,36.5979995727539060,231.1304931640625000,140.9382934570312500,18.4306793212890620,30.7305793762207030,50,101,90,65,52,13171,2146953325,2147514816,2147265974,2147457142,2147082514,2146973147,2147679158,2147123675,373,-2,9,45424
1349279842,5806,271.9299926757812500,18.5137996673584000,36.6027984619140600,229.8863983154297000,138.3905944824218800,18.5076999664306640,30.7579708099365230,50,103,91,65,53,13172,2146956032,2147513846,2147267456,2147457234,2147085037,2146976969,2147688301,2147122066,3505,-1,9,49690
1349279990,5805,259.4800109863281000,18.6476001739501950,36.6120986938476560,227.8414001464843800,133.8571014404297000,18.6448001861572270,30.7985305786132800,50,100,91,66,53,13172,2146957074,2147517622,2147265334,2147458230,2147086363,2146975744,2147687762,2147124096,3160,-2,8,27369
1349280105,5804,248.2400054931640600,18.7670993804931640,36.6072998046875000,228.3175964355468800,129.8601074218750000,18.7657108306884770,30.7217903137207030,50,102,91,65,53,13175,2146958317,2147512822,2147266276,2147457965,2147084443,2146986203,2147707538,2147129243,2983,-2,9,17874
1349280222,5801,236.8399963378906200,18.8791007995605470,36.6041984558105500,230.4799041748047000,126.2704010009765600,18.8743305206298830,30.5676593780517580,50,99,91,65,53,13176,2146954907,2147512667,2147266377,2147458523,2147085321,2146970605,2147670619,2147126509,3135,-1,8,22411
1349280337,5804,225.7200012207031200,19.0224990844726560,36.6067008972168000,232.1578063964843800,121.3824005126953100,19.0223007202148440,30.4210605621337900,51,100,90,64,53,13176,2146954779,2147515547,2147268251,2147452827,2147080329,2146996717,2147726418,2147130724,2959,-2,8,43381
1349280452,5808,214.8600006103515600,19.0965995788574220,36.5987014770507800,234.7079010009765600,119.0341033935546900,19.0934104919433600,30.2674598693847660,50,99,90,65,53,13172,2146954386,2147515474,2147266550,2147456210,2147090166,2146996022,2147715117,2147128576,2761,-1,8,31612
1349280569,5809,204.0599975585937500,19.1590003967285160,36.5713005065918000,243.4427032470703000,117.0693969726562500,19.1529102325439450,29.8333702087402340,50,100,91,64,52,13175,2146957586,2147516809,2147270070,2147455003,2147093577,2147085723,2147879314,2147140589,2741,-1,8,14193
1349280648,5803,196.9100036621093800,19.2376003265380860,36.5793991088867200,245.9703979492187500,114.5082015991211000,19.2304992675781250,29.6851902008056640,50,102,91,65,53,13173,2146955565,2147517504,2147276388,2147454592,2147091200,2147115766,2147943286,2147140928,2849,-2,8,19736
1349280703,5804,191.9900054931640600,19.2700996398925780,36.5802001953125000,246.4369049072265600,113.0429992675781200,19.2749004364013670,29.6452503204345700,51,101,90,65,52,13172,2146954825,2147517970,2147275318,2147456365,2147104539,2147142957,2147972690,2147143808,2989,-1,9,3985
1349280758,5802,187.1699981689453000,19.3110008239746100,36.5825004577636700,246.6889038085937500,111.6050033569336000,19.3184700012207030,29.6152305603027340,50,101,91,64,52,13170,2146955300,2147517129,2147271862,2147453074,2147095268,2147071460,2147835145,2147135168,2782,-2,9,58810
1349280813,5809,182.3699951171875000,19.3449001312255860,36.5825004577636700,246.4304046630859400,110.6856002807617200,19.3463401794433600,29.6148796081542970,52,101,92,66,52,13171,2146955190,2147526372,2147279396,2147453394,2147101988,2147227794,2148124443,2147151963,2627,-1,9,39854
1349280889,5803,176.1499938964843800,19.3939990997314450,36.5863990783691400,246.0700988769531200,109.3539962768554700,19.3866996765136720,29.6138591766357420,51,101,90,65,52,13170,2146958784,2147524726,2147284004,2147453430,2147113307,2147273636,2148202432,2147159158,2841,-1,9,6121
1349280944,5806,172.0700073242187500,19.4076995849609380,36.5845985412597660,246.6542053222656200,108.8535003662109400,19.4018707275390620,29.5808906555175780,52,102,91,65,52,13169,2146957476,2147522093,2147284571,2147454418,2147118994,2147316772,2148256731,2147162523,2630,-1,9,60410
1349280999,5804,168.0700073242187500,19.4144992828369140,36.5803985595703100,247.6896972656250000,108.5061035156250000,19.4123992919921880,29.5302391052246100,53,104,91,65,51,13168,2146958025,2147529874,2147287634,2147452306,2147131053,2147352658,2148317321,2147165357,2555,-2,8,45555
1349281054,5803,164.1799926757812500,19.4307994842529300,36.5764007568359400,248.4232940673828000,107.9498977661132800,19.4292602539062500,29.4901008605957030,52,102,92,67,51,13166,2146954395,2147525933,2147287204,2147450816,2147127488,2147347648,2148308333,2147163574,2249,-2,9,21262
1349281121,5804,159.4900054931640600,19.4542007446289060,36.5787010192871100,248.5921936035156200,107.2422027587890600,19.4507198333740230,29.4735603332519530,52,103,90,64,52,13169,2146955949,2147529938,2147293778,2147457910,2147153005,2147470957,2148503149,2147176978,2249,-2,9,54933
1349281200,5805,154.4900054931640600,19.4757003784179700,36.5792999267578100,248.7601013183593800,106.2002029418945300,19.4823093414306640,29.4526996612548830,53,103,90,65,53,13169,2146954422,2147517522,2147275702,2147452388,2147105746,2147180425,2147974043,2147141028,2574,-1,9,34325
1349281279,5806,150.4400024414062500,19.5324993133544920,36.5892982482910160,248.5115966796875000,104.7201995849609400,19.5271892547607420,29.4446601867675780,54,102,92,65,52,13165,2146955876,2147520064,2147272137,2147452507,2147107693,2147121234,2147869677,2147140617,2130,-2,9,14994
1349281358,5803,146.6100006103515600,19.5855007171630860,36.5909996032714840,247.5482940673828000,102.9376983642578100,19.5812492370605470,29.4645500183105470,53,102,90,64,53,13169,2146958198,2147522980,2147271698,2147451428,2147109321,2147156178,2147932562,2147143552,1580,-1,9,598
1349281449,5807,142.2200012207031200,19.6643009185791000,36.6049995422363300,246.3195953369140600,100.2288970947265600,19.6634292602539060,29.4847202301025400,57,102,93,66,52,13162,2146956059,2147527003,2147283501,2147452891,2147151497,2147351506,2148247195,2147162075,1735,-1,9,62188
1349281530,5804,138.4199981689453000,19.7472000122070300,36.6053009033203100,246.4317932128906200,97.9052963256836000,19.7339401245117200,29.4495792388916000,64,105,91,64,52,13163,2146963410,2147546907,2147327058,2147453970,2147275812,2148006921,2149318729,2147232832,1185,-1,9,12965
1349281609,5803,134.5200042724609400,19.8171997070312500,36.6088981628418000,248.1083068847656200,95.5777969360351600,19.8045902252197270,29.3449707031250000,76,110,92,66,53,13150,2146958765,2147532470,2147291693,2147451776,2147196635,2147510482,2148457673,2147178788,1433,-2,9,11434
1349281688,5805,130.6699981689453000,19.8883991241455080,36.6124000549316400,246.5677032470703000,92.8760910034179700,19.8866100311279300,29.3787803649902340,84,108,91,64,52,13145,2146960987,2147537481,2147317458,2147453522,2147263113,2147760841,2148876955,2147204269,1187,-2,9,32152
1349281767,5807,126.6600036621093800,20.0151004791259770,36.6255989074707000,250.7658996582031200,88.7082138061523400,20.0132007598876950,29.1396598815917970,84,110,91,66,52,13141,2146963282,2147556672,2147345673,2147454043,2147399104,2148323602,2149754139,2147264484,1375,-2,9,25543
1349281848,5805,122.5199966430664000,20.0902004241943360,36.6338005065918000,253.0164031982422000,86.2979965209961000,20.0864391326904300,29.0106792449951170,85,112,94,66,53,13136,2146972361,2147568658,2147362486,2147453549,2147509824,2148620626,2150173778,2147297005,1298,-2,9,26917
1349281927,5807,118.5800018310546900,20.2546997070312500,36.6577987670898440,251.2075042724609400,81.3641967773437500,20.2364101409912100,29.0265502929687500,93,120,92,66,52,13125,2146975478,2147579090,2147385627,2147450761,2147606710,2148839542,2150421961,2147320429,961,-1,9,23173
1349282018,5804,114.2699966430664000,20.3024005889892580,36.6623992919921900,246.3137969970703000,79.2852325439453100,20.2996292114257800,29.2160701751709000,103,125,92,67,52,13111,2146983186,2147589650,2147399296,2147453046,2147768813,2149178980,2150829952,2147356909,1145,-2,9,38287
1349282097,5807,110.7900009155273400,20.3894004821777340,36.6754989624023440,243.5666046142578000,76.6790237426757800,20.3789100646972660,29.3059997558593750,111,122,93,67,52,13112,2146989156,2147600886,2147409472,2147454390,2147916809,2149505280,2151205421,2147393600,1378,-1,9,7528
1349282202,5805,106.7099990844726600,20.5188007354736330,36.6772994995117200,243.2639007568359400,72.3046112060546900,20.5120391845703120,29.2636508941650400,118,124,94,67,52,13096,2146996982,2147616484,2147448740,2147458998,2148151241,2149976301,2151757513,2147439972,1088,-2,9,32202
1349282329,5806,102.9199981689453100,20.5841007232666000,36.6805992126464840,243.8358001708984400,70.1145095825195300,20.5787200927734380,29.2099990844726560,127,123,94,66,53,13089,2147010669,2147640722,2147490706,2147455478,2148429888,2150494756,2152359789,2147496978,122,-2,9,5267
1349282476,5806,98.5400009155273400,20.8262004852294920,36.6738014221191400,248.4815979003906200,62.4289283752441400,20.8128700256347660,28.9053192138671880,142,125,92,67,52,13064,2147027318,2147666843,2147518674,2147458688,2148914505,2151394404,2153417746,2147595062,3196,-1,9,60710
1349282531,5804,96.5199966430664000,20.9958000183105470,36.6903991699218750,247.7790069580078000,57.2062797546386700,20.9721202850341800,28.8700599670410160,155,132,95,67,54,13040,2147040118,2147691446,2147555081,2147459026,2149200374,2151866688,2153967734,2147651894,3370,-1,9,2359
1349282586,5804,94.6800003051757800,21.0210990905761720,36.6789016723632800,249.4669952392578000,55.9145812988281250,21.0115203857421880,28.7796497344970700,143,132,94,67,51,13037,2147055286,2147711881,2147593115,2147460571,2149509202,2152418413,2154624448,2147721499,3397,-2,9,19284
1349282641,5806,92.9899978637695300,21.1173000335693360,36.6837997436523440,254.4212036132812500,53.0284690856933600,21.0995903015136720,28.5295295715332030,131,127,93,66,52,13036,2147068672,2147736374,2147612224,2147461101,2149848128,2153025307,2155302710,2147788370,3238,-1,9,27076
1349282708,5808,91.0400009155273400,21.1460990905761720,36.6758995056152340,257.7249145507812500,51.6200294494628900,21.1425895690917970,28.3719806671142580,133,129,93,69,52,13035,2147094098,2147772635,2147687122,2147466441,2150372946,2153937490,2156273088,2147890953,3556,-1,9,51760
1349282787,5806,88.3300018310546900,21.2506008148193360,36.6665992736816400,257.2594909667969000,47.4623794555664060,21.2695503234863280,28.3394908905029300,112,124,94,67,52,13044,2147126610,2147824448,2147736493,2147468507,2151204827,2155321627,2157607378,2148039460,3347,-2,9,43179
1349282842,5805,85.8199996948242200,21.3253002166748050,36.6657981872558600,255.7145996093750000,45.9068183898925800,21.3170795440673830,28.3853702545166000,106,121,96,66,53,13054,2147169051,2147889691,2147826441,2147476608,2152088018,2156795072,2159012608,2148193481,3511,-1,9,28773
1349282897,5808,83.0999984741211000,21.5893993377685550,36.7010993957519500,256.9540100097656000,39.0931015014648440,21.5253696441650400,28.2478008270263670,94,120,94,68,53,13061,2147222290,2147976813,2147935232,2147484288,2153286784,2158729444,2160802788,2148394624,37,-1,9,52745
1349282952,5804,80.7300033569336000,21.7101001739501950,36.6753005981445300,260.1505126953125000,33.6798400878906250,21.6910095214843750,28.0473594665527340,92,122,95,68,50,13054,2147289554,2148070454,2148070043,2147491648,2154601133,2160711826,2162561773,2148580864,275,-1,9,2425
1349283007,5808,78.7500000000000000,21.8894004821777340,36.6636009216308600,261.4538879394531000,28.0200405120849600,21.8643493652343750,27.9235801696777340,94,120,95,68,53,13046,2147337417,2148139209,2148137353,2147498752,2155841910,2162518089,2164146587,2148759222,933,-2,9,35421
1349283062,5805,77.2600021362304700,22.0888004302978500,36.6622009277343750,261.6163940429687500,22.2254905700683600,22.0419807434082030,27.8453807830810550,87,124,95,67,51,13034,2147377828,2148195602,2148183542,2147498468,2156713216,2163772626,2165134281,2148865609,981,-2,9,28845
1349283141,5805,75.1299972534179700,22.1422004699707030,36.6599998474121100,263.8374938964844000,19.1702194213867200,22.1357097625732420,27.7172393798828120,83,124,96,68,51,13043,2147480822,2148334372,2148376832,2147519122,2158703113,2166575213,2167362733,2149106742,738,-1,9,56722
1349283208,5806,72.6399993896484400,22.2996997833251950,36.6649017333984400,267.3822937011719000,14.1254796981811520,22.2905807495117200,27.5129604339599600,81,120,94,66,50,13045,2147590875,2148463533,2148449362,2147522249,2161354340,2170142601,2170179492,2149415122,965,-1,9,33725
1349283263,5804,70.9400024414062500,22.5095996856689450,36.6671981811523440,268.9888916015625000,7.9579977989196780,22.4801006317138670,27.3738002777099600,78,126,95,67,50,13037,2147656905,2148530176,2148415625,2147507145,2163163163,2172468452,2171883602,2149586185,1349,-1,9,4978
1349283342,5805,69.5800018310546900,22.6986007690429700,36.6666984558105500,270.4815979003906000,1.8417570590972900,22.6682605743408200,27.2405605316162100,77,124,97,69,50,13050,2147746861,2148633197,2148485083,2147511862,2165304722,2175283209,2173950619,2149803611,1445,-2,10,43200
1349283469,5806,67.1900024414062500,23.0095996856689450,36.6595993041992200,272.3356933593750000,-8.3595523834228520,22.9825706481933600,27.0444297790527340,72,121,96,68,51,13054,2147942985,2148859629,2148660580,2147520301,2170039232,2181178944,2178118820,2150242889,1527,-1,9,46177
1349283536,5804,65.2399978637695300,23.0382995605468750,36.6315002441406250,270.8593139648437500,-9.8005409240722660,23.0270099639892580,27.0843200683593750,72,120,97,68,51,13053,2148078116,2149016018,2148812845,2147532077,2173245275,2185123364,2181046098,2150564260,1376,-1,9,6664
1349283615,5804,63.0999984741210940,23.1515998840332030,36.6333007812500000,268.0033874511719000,-13.4192399978637700,23.1386909484863280,27.1524696350097660,70,122,94,68,50,13055,2148232612,2149176521,2148895689,2147537124,2177006957,2189797485,2184356470,2150957897,1680,-2,9,60626
1349283694,5805,61.5400009155273440,23.3505001068115230,36.6292991638183600,265.8476867675781000,-19.4889698028564450,23.3261699676513670,27.1640701293945300,70,129,96,69,51,13049,2148347684,2149308617,2149009856,2147545417,2179605760,2192873472,2186665453,2151248694,1616,-2,9,10138
1349283821,5806,59.2599983215332000,23.5534000396728500,36.6022987365722660,267.6173095703125000,-26.7337493896484380,23.5502605438232420,27.0062904357910160,66,125,95,68,50,13047,2148728292,2149734116,2149690340,2147665572,2186457673,2200379410,2191450322,2151819885,742,-2,9,64620
1349283900,5805,57.0000000000000000,23.7721004486084000,36.6167984008789060,267.7001037597656000,-33.1004791259765600,23.7474594116210940,26.9260902404785160,65,131,97,68,47,13052,2148968274,2149951570,2149765696,2147660269,2192530779,2207433636,2196042980,2152368932,287,-2,9,4120
1349283967,5806,55.1599998474121100,23.8810005187988280,36.6048011779785160,267.5809020996094000,-36.2440605163574200,23.8449306488037100,26.8927898406982420,65,134,94,67,50,13055,2149125302,2150075684,2149694006,2147628763,2196744512,2212170989,2199188434,2152781074,3499,-1,9,28879
1349284145,5807,53.2799987792968750,24.0863990783691400,36.6203994750976560,266.3255004882812500,-43.8959007263183600,24.0824508666992200,26.8498306274414060,63,126,96,68,51,13041,2149410011,2150333302,2149815798,2147621558,2203459492,2219434523,2203859693,2153339858,3281,-2,9,25122
1349284218,5805,51.8699989318847660,24.2959003448486330,36.6277999877929700,267.9526062011719000,-50.4476318359375000,24.2861404418945300,26.7071208953857420,62,128,97,68,50,13042,2149737280,2150639643,2150062857,2147653714,2210329517,2226620772,2208551405,2153866541,3394,-2,9,42005
1349284368,5806,49.9199981689453100,24.7266998291015620,36.6082000732421900,266.7450866699219000,-62.9803695678710940,24.6766109466552730,26.6039199829101560,63,123,96,67,50,13046,2150190756,2151126784,2150659584,2147777664,2219428379,2235894619,2214404818,2154575049,332,-1,9,1191
1349284630,5805,47.8899993896484400,25.6021003723144530,36.5536003112793000,261.4147949218750000,-92.8369369506836000,25.6115493774414060,26.4565105438232420,61,123,96,67,50,13047,2150530368,2151361682,2150494491,2147676251,2229513142,2246473014,2220874240,2155356580,3248,-1,9,25898
1349285107,5803,45.9900016784668000,26.7556991577148440,36.4668998718261700,248.8845062255859400,-127.4729995727539000,26.7051792144775400,26.5513496398925780,62,125,94,68,50,13047,2151072192,2151936612,2151165110,2147816758,2239484132,2255371858,2226989714,2156451291,1107,-2,10,48379
1349285392,5808,44.8699989318847660,26.8812007904052730,36.4799003601074200,240.7864990234375000,-132.3157043457031200,26.8589096069335940,26.8375797271728500,61,116,93,68,51,13047,2151420507,2152311222,2151761380,2148028864,2245794002,2262228982,2231227904,2156985197,788,-2,9,14142
1349285713,5808,42.9000015258789060,26.8976993560791000,36.4357986450195300,239.5769958496093800,-134.1831054687500000,26.9182491302490230,26.8673400878906250,58,119,93,67,50,13059,2151670217,2152388150,2151262290,2147784731,2253584786,2269902692,2235243474,2157547254,33,-2,9,11562
1349285842,5810,40.8600006103515600,26.9141998291015620,36.3914985656738300,239.0095062255859400,-134.6672058105468800,26.9336395263671880,26.8863105773925780,58,115,93,70,49,13065,2152346157,2152957504,2151652781,2147845915,2268652534,2283993298,2243458998,2158779867,94,-1,9,19630
1349285983,5807,38.8100013732910160,26.9256992340087900,36.3787994384765600,238.4051971435547000,-135.1750946044922000,26.9497890472412100,26.9065799713134770,58,117,94,67,50,13063,2153281664,2153840795,2152654198,2148215725,2288832292,2302496466,2254204626,2160454573,564,-2,9,61563
1349286040,5806,36.3100013732910160,26.9069004058837900,36.3629989624023440,238.4826965332031200,-134.4965972900390600,26.9282207489013670,26.9114799499511720,57,116,94,67,50,13057,2154049344,2154516854,2153207506,2148390793,2307205778,2319418898,2264482788,2162285019,583,-2,9,51919
1349286073,5807,34.6100006103515600,26.9223003387451170,36.3479003906250000,238.3011932373047000,-135.1188964843750000,26.9479999542236330,26.9119300842285160,56,116,93,65,51,13062,2154519332,2154871433,2153266852,2148338660,2321800128,2333838272,2273058532,2163780800,449,-2,9,68